User: anonymous   Login
Location: Unspecified
(0.0000°N, 0.0000°E)
Time: 13:45:20
(UTC+00:00)
Language:

Transit 2A Rocket - Orbit

View from above orbital plane
View from above orbital plane
View from above satellite
View from above satellite

Ground track
Ground track

The orbit data is extracted from the following two-line orbital elements,

1    47U 60007C   19200.82703651 -.00000046 +00000-0 +14795-4 0  9999
2    47 066.6668 327.0220 0229262 189.2784 170.4053 14.42042350086570
Epoch (UTC): 19 July 2019 19:50:55
Eccentricity: 0.0229262
inclination: 66.6668°
perigee height: 588 km
apogee height: 915 km
right ascension of ascending node: 327.0220°
argument of perigee: 189.2784°
revolutions per day: 14.42042350
mean anomaly at epoch: 170.4053°
orbit number at epoch: 8657

The dashed part of the orbit path shows where the satellite is in the earth's shadow,  

DLR